Moses Lake, Washington, United States (98837)
Lat: 47.13N, Lon: 119.28W
Wx Zone: WAZ034
Local Info
Past Weather Observations for Wednesday, August 27, 2014

NOTE: This archive is for the closest National Weather Service station to Moses Lake. Information may differ from the station used for current weather conditions.

Click here for Long-term Archive

Time Weather Temperature Dewpoint Humidity Pressure Winds Precip Visibility
23:52
Clear
73°F / 23°C 54°F / 12°C 50% 29.92 in
(1013 mb)
SW 4.6 mph
(SW 7 kph)
- 10SM
22:52
Clear
75°F / 24°C 50°F / 10°C 41% 29.89 in
(1012 mb)
W 6.9 mph
(W 11 kph)
- 10SM
21:52
Clear
75°F / 24°C 52°F / 11°C 44% 29.89 in
(1012 mb)
NW 5.8 mph
(NW 9 kph)
- 10SM
20:52
Clear
77°F / 25°C 55°F / 13°C 47% 29.89 in
(1012 mb)
NW 9.2 mph
(NW 15 kph)
- 10SM
19:52
Clear
86°F / 30°C 52°F / 11°C 31% 29.89 in
(1012 mb)
SW 6.9 mph
(SW 11 kph)
- 10SM
18:52
Clear
88°F / 31°C 54°F / 12°C 31% 29.89 in
(1012 mb)
S 9.2 mph
(S 15 kph)
- 10SM
17:52
Clear
91°F / 33°C 50°F / 10°C 24% 29.89 in
(1012 mb)
S 9.2 mph
(S 15 kph)
- 10SM
16:52
Clear
93°F / 34°C 48°F / 9°C 21% 29.89 in
(1012 mb)
S 11.5 mph
(S 19 kph)
- 10SM
15:52
Clear
93°F / 34°C 48°F / 9°C 21% 29.92 in
(1013 mb)
S 11.5 mph
(S 19 kph)
- 10SM
14:52
Clear
93°F / 34°C 50°F / 10°C 23% 29.92 in
(1013 mb)
S 13.8 mph
(S 22 kph)
- 10SM
13:52
Partly Cloudy
93°F / 34°C 50°F / 10°C 23% 29.95 in
(1014 mb)
SSE 9.2 mph
(SSE 15 kph)
- 10SM
12:52
Partly Cloudy
91°F / 33°C 54°F / 12°C 28% 29.95 in
(1014 mb)
SSE 9.2 mph
(SSE 15 kph)
- 10SM
11:52
Clear
88°F / 31°C 54°F / 12°C 31% 29.98 in
(1015 mb)
SSW 4.6 mph
(SSW 7 kph)
- 10SM
10:52
Clear
84°F / 29°C 52°F / 11°C 33% 30.01 in
(1016 mb)
SSE 6.9 mph
(SSE 11 kph)
- 10SM
09:52
Clear
81°F / 27°C 52°F / 11°C 37% 30.01 in
(1016 mb)
Variable 5.8 mph
(Variable 9 kph)
- 10SM
08:52
Clear
77°F / 25°C 50°F / 10°C 39% 30.01 in
(1016 mb)
SSE 6.9 mph
(SSE 11 kph)
- 10SM
07:52
Clear
72°F / 22°C 46°F / 8°C 41% 30.01 in
(1016 mb)
SE 3.5 mph
(SE 6 kph)
- 10SM
06:52
Clear
66°F / 19°C 46°F / 8°C 49% 30.01 in
(1016 mb)
Calm - 10SM
05:52
Clear
61°F / 16°C 46°F / 8°C 59% 30.01 in
(1016 mb)
Calm - 10SM
04:52
Clear
57°F / 14°C 46°F / 8°C 67% 30.01 in
(1016 mb)
N 5.8 mph
(N 9 kph)
- 10SM
03:52
Clear
57°F / 14°C 46°F / 8°C 67% 29.98 in
(1015 mb)
N 3.5 mph
(N 6 kph)
- 10SM
02:52
Clear
57°F / 14°C 46°F / 8°C 67% 29.98 in
(1015 mb)
N 4.6 mph
(N 7 kph)
- 10SM
01:52
Clear
61°F / 16°C 48°F / 9°C 63% 29.98 in
(1015 mb)
NNE 3.5 mph
(NNE 6 kph)
- 10SM
00:52
Clear
61°F / 16°C 48°F / 9°C 63% 29.98 in
(1015 mb)
N 5.8 mph
(N 9 kph)
- 10SM
Time Weather Temperature Dewpoint Humidity Pressure Winds Precip Visibility


Weather for websites

WeatherForYou.com, LLC is not responsible for any damages or problems caused by this service. Current weather conditions are obtained from the closest station including government and personal stations which may have varying degrees of accuracy. Weather forecasts are derived from the NOAA NDFD. Like all things, this site belongs to Jesus Christ... He just trusts me to maintain it. If you have any questions or comments email webmaster@weatherforyou.com

Copyright © 2014, WeatherForYou.com LLC. All rights reserved.